sat.trackr.live / text

‹ back to catalog

IRIDIUM 157

NORAD 43251 · 2018-030C

PAYLOAD ACTIVE UNKNOWN

§ Identity

Operator
Country
US
Launch date
2018-03-30
Launch site
AFWTR
Launch vehicle
Mass (kg)
RCS (m²)

Purposes: comms

External: N2YO · Heavens-Above · Gunter

§ Orbital elements

Epoch: 2026-09-20T05:03:43.322112Z

Period
100.40 min
Inclination
86.3915°
Eccentricity
0.0002259
Mean motion
14.34217949 rev/d
Perigee alt
776.0 km
Apogee alt
779.3 km
Semi-major
7,155.8 km
B*
2.7915e-5
RAAN
250.6701°
Arg perigee
87.9043°
Mean anomaly
272.2412°
Rev number
44,375

§ Raw data

IRIDIUM 1571 43251U 18030C   26263.21091808  .00000098  00000+0  27915-4 0  99992 43251  86.3915 250.6701 0002259  87.9043 272.2412 14.34217949443756

JSON: /api/v1/satellites/43251 · /tle

For live sub-satellite position, see the globe view (requires WebGL).

§ Visibility from observer

Set your observer location to see the next 7 days of passes ≥ 10°. The values pass through the URL so the page stays shareable.

No JS? Fill the form by hand. The geolocation button needs JavaScript.